Ban Lam Kradan, Thailand

8:23 PM +07 on September 19, 2017 (GMT +0700)
Khu Khot | | Change Station

Elev 15 ft 13.96 °N, 100.65 °E | Updated 12 seconds ago

Clear
Clear
88.0 °F
Feels Like 99 °F
N
0.0
Wind Variable Wind from East
Gusts 0.0 mph

Today
High -- | Low -- °F
--% Chance of Precip.
Yesterday
High -- | Low -- °F
Precip. -- in
Pressure 29.77 in
Visibility 6.2 miles
Clouds Few 2000 ft
Heat Index 99 °F
Dew Point 76 °F
Humidity 68%
Rainfall 0.00 in
Snow Depth Not available.
6:06 AM 6:15 PM
Waning Crescent, 1% visible
METAR VTBD 191300Z 03003KT 360V060 9999 FEW020 32/25 Q1008 NOSIG
Pressure 29.77 in
Visibility 6.2 miles
Clouds Few 2000 ft
Heat Index 99 °F
Dew Point 76 °F
Humidity 68%
Rainfall 0.00 in
Snow Depth Not available.
6:06 AM 6:15 PM
Waning Crescent, 1% visible
METAR VTBD 191300Z 03003KT 360V060 9999 FEW020 32/25 Q1008 NOSIG

Get Severe Weather Alerts

Thanks for signing up!

Be on the lookout for a verification email in your inbox.

You'll start receiving the daily forecast at 6 AM.

×

10-Day Weather Forecast

No radar image for this location.
×

Almanac

Astronomy

Sep. 19, 2017 Rise Set
Actual Time
Civil Twilight
Nautical Twilight
Astronomical Twilight
Moon
Length of Visible Light
Length of Day
Tomorrow will be .
, % of the Moon is Illuminated

Today's Extremes

Country Highs Country Lows

Community

WunderPhotos

Category 6

Welcome to Category 6. This is the collective home for Weather Underground's featured writeups by Dr. Jeff Masters (right), Bob Henson (left), Chris Burt, and other regular contributors.

Nearby

Air Quality

  Air Quality AQ Index Pollutant
Not available.

Snow Depth

Station Depth Elevation

Earthquake Activity

City Distance Mag. Time & Date
Minimum magnitude displayed is 2.5.

Coastal Water Temperatures

Place Temperature

Stations

Nearby Weather Stations

Station Location Temp. Windchill Dew Point Humidity Wind Precip. Elev Updated Type